Home   Weather   Nagercoil   Past weeks

Flag for India Past Weather in Nagercoil, Tamil Nadu, India — Yesterday and Last 2 Weeks

Now
84 °F

Haze.


Feels Like: 87 °F
Forecast: 74 / 86 °F
Wind: 5 mph from Southeast

Location: Thiruvananthapuram

Current Time: Jan 20, 2017 at 9:41:00 am

Latest Report: Jan 20, 2017 at 9:00 am


Visibility: 3 mi

Pressure: 29.92 "Hg

Humidity: 58%

Dew Point: 68 °F

Location of NagercoilLocation

Past Weather in Nagercoil — Graph

°F

Nagercoil Temperature Yesterday

Maximum temperature yesterday: 88 °F (at 12:30 pm)
Minimum temperature yesterday: 72 °F (at 6:00 am)
Average temperature yesterday: 81 °F

High & Low Weather Summary for the Past Weeks

 TemperatureHumidityPressure
High90 °F (Jan 14, 11:00 am)89% (Jan 7, 5:00 am)29.95 "Hg (Jan 7, 5:00 am)
Low72 °F (Jan 19, 6:00 am)38% (Jan 14, 11:30 am)29.71 "Hg (Jan 7, 3:00 pm)
Average82 °F66%29.84 "Hg
* Reported Jan 5 8:30 am — Jan 20 8:30 am, Nagercoil, Weather by CustomWeather, © 2017

Note: Actual official high and low records may vary slightly from our data, if they occured in-between our weather recording intervals... More about our weather records

Advertising

Nagercoil Weather History for the Previous 24 Hours

Scroll right to see more
 ConditionsComfort  
Time TempWeatherWind HumidityBarometerVisibility
8:30 am
Fri, Jan 20
82 °FHaze.5 mph62%29.92 "Hg2 mi
8:00 am79 °FHaze.3 mph70%29.92 "Hg2 mi
7:30 am77 °FHaze.5 mph74%29.92 "Hg2 mi
7:00 am75 °FPassing clouds.No wind78%29.89 "Hg2 mi
6:30 am75 °FPassing clouds.2 mph83%29.89 "Hg2 mi
6:00 am77 °FHaze.2 mph79%29.89 "Hg2 mi
5:30 am77 °FHaze.3 mph79%29.89 "Hg2 mi
5:00 am77 °FHaze.3 mph79%29.86 "Hg2 mi
4:30 am77 °FHaze.2 mph79%29.86 "Hg2 mi
4:00 am77 °FHaze.3 mph79%29.86 "Hg2 mi
3:30 am79 °FHaze.5 mph74%29.86 "Hg2 mi
3:00 am79 °FPassing clouds.2 mph74%29.86 "Hg2 mi
2:30 am79 °FPassing clouds.2 mph74%29.86 "Hg2 mi
2:00 am79 °FPassing clouds.2 mph74%29.89 "Hg2 mi
1:00 am79 °FPassing clouds.2 mph74%29.89 "Hg2 mi
12:30 am81 °FPassing clouds.2 mph70%29.89 "Hg2 mi
12:00 am81 °FPassing clouds.No wind70%29.92 "Hg2 mi
11:30 pm
Thu, Jan 19
81 °FPassing clouds.No wind70%29.92 "Hg2 mi
11:00 pm81 °FPassing clouds.No wind70%29.92 "Hg2 mi
10:30 pm81 °FHaze.No wind70%29.92 "Hg2 mi
10:00 pm81 °FHaze.No wind70%29.92 "Hg2 mi
9:30 pm82 °FHaze.No wind66%29.92 "Hg2 mi
9:00 pm82 °FHaze.No wind66%29.92 "Hg2 mi
8:30 pm82 °FHaze.No wind66%29.92 "Hg2 mi
8:00 pm82 °FHaze.No wind66%29.89 "Hg2 mi
7:30 pm82 °FHaze.5 mph66%29.89 "Hg3 mi
7:00 pm82 °FHaze.5 mph66%29.86 "Hg3 mi
6:30 pm84 °FPassing clouds.5 mph62%29.86 "Hg4 mi
6:00 pm84 °FPassing clouds.5 mph58%29.83 "Hg4 mi
5:30 pm86 °FPassing clouds.6 mph55%29.83 "Hg4 mi
5:00 pm86 °FPassing clouds.8 mph55%29.83 "Hg4 mi
4:30 pm86 °FPassing clouds.8 mph55%29.80 "Hg4 mi
4:00 pm86 °FPassing clouds.9 mph55%29.80 "Hg4 mi
3:30 pm88 °FPassing clouds.9 mph52%29.80 "Hg4 mi
3:00 pm88 °FPassing clouds.9 mph52%29.80 "Hg4 mi
2:30 pm88 °FPassing clouds.10 mph52%29.80 "Hg4 mi
2:00 pm86 °FPassing clouds.10 mph52%29.83 "Hg4 mi
1:30 pm88 °FPassing clouds.9 mph52%29.83 "Hg4 mi
12:30 pm88 °FHaze.9 mph49%29.89 "Hg4 mi
12:00 pm86 °FHaze.9 mph52%29.89 "Hg4 mi
11:30 am86 °FHaze.7 mph49%29.92 "Hg4 mi
11:00 am86 °FHaze.7 mph49%29.92 "Hg3 mi
10:30 am86 °FHaze.3 mph49%29.92 "Hg3 mi
10:00 am86 °FHaze.5 mph49%29.95 "Hg2 mi
9:30 am84 °FHaze.6 mph48%29.95 "Hg2 mi
9:00 am82 °FHaze.7 mph51%29.95 "Hg2 mi
Weather by CustomWeather, © 2017

See weather overviewHow to use our weather pages